Tracking 31027 objects as of 19-Jul-2025
HD Live streaming from Space Station
objects crossing your sky now

THORAD AGENA D DEB

Track THORAD AGENA D DEB now!
10-day predictions


NORAD ID: 4218
Int'l Code: 1969-082CH
Perigee: 683.2 km
Apogee: 727.8 km
Inclination: 70.1 °
Period: 98.7 minutes
Semi major axis: 7076 km
RCS: 0.0624 m2 (small)
Launch date: September 30, 1969
Source: United States (US)
Launch site: AIR FORCE WESTERN TEST RANGE (AFWTR)

Note: This is SATELLITE DEBRIS
Your satellite tracking list
STARLINK-31879
Track 1 satellite(s)




NASA's NSSDC Master Catalog

Two Line Element Set (TLE):
1  4218U 69082CH  25199.69230229  .00001580  00000-0  35240-3 0  9990
2  4218  70.0969 294.4882 0031524  59.1432 301.2802 14.58396191910670
Source of the keplerian elements: AFSPC